Location: ?????
(32.7281°N, 34.9563°E)
Time: 18:49:52
(UTC+00:00)

Milstar 3 - Pass Details

Date: 29 October 2020
Orbit: 1101 x 5144 km, 28.2° (Epoch: 28 November)

Event Time Altitude Azimuth Distance (km) Brightness Sun altitude
Rises 16:23:18 0° 266° (W) 4,328 7.5 -19.8°
Reaches altitude 10° 16:26:23 10° 263° (W) 3,138 6.4 -20.4°
Maximum altitude 16:33:13 61° 185° (S) 1,235 3.0 -21.8°
Enters shadow 16:36:09 34° 119° (ESE) 1,759 3.4 -22.5°
